{"data":{"norad_id":49216,"intl_designator":"2021-083AG","name":"ONEWEB-0352","alt_names":[],"object_type":"PAYLOAD","status":"ACTIVE","operator":null,"country":"UK","launch_date":"2021-09-14","launch_site_code":"TYMSC","launch_vehicle":null,"mission":null,"orbit_class":"UNKNOWN","rcs_meters":null,"size_class":null,"mass_kg":null,"dimensions":null,"purposes":["comms"],"wikipedia_slug":null,"has_3d_model":false,"image_url":null,"decayed_at":null,"tle_current":{"epoch":"2026-09-19T20:47:16.420128Z","epoch_age_seconds":80549,"freshness":"FRESH","line1":"1 49216U 21083AG  26262.86616227  .00000265  00000+0  69041-3 0  9997","line2":"2 49216  87.8912 301.3929 0001656  86.8724 273.2594 13.13469086243450","mean_motion":13.13469086,"eccentricity":0.0001656,"inclination_deg":87.8912,"raan_deg":301.3929,"arg_perigee_deg":86.8724,"mean_anomaly_deg":273.2594,"bstar":0.00069041,"rev_number":24345,"period_min":109.63333780358,"perigee_km":1208.5123627942,"apogee_km":1211.0254772349,"semimajor_km":7587.9059200146,"source":"CELESTRAK","updated_at":"2026-09-20T09:00:44.667078Z"}}}